| time (UTC) | temp F | wind direction | speed MPH | gust MPH | rain 1hr in | rain 24hr in | rain mn in | humidity % | barometer mb |
| 20260902204509 | 68 | 119 | 5.0 | 11.0 | 0.22 | 0.24 | 0.24 | 93 | 1021.4 |
| 20260902204008 | 68 | 119 | 4.0 | 11.0 | 0.24 | 0.24 | 0.24 | 93 | 1021.5 |
| 20260902203510 | 68 | 124 | 3.0 | 9.0 | 0.24 | 0.24 | 0.24 | 93 | 1021.5 |
| 20260902203008 | 68 | 124 | 3.0 | 10.0 | 0.24 | 0.24 | 0.24 | 93 | 1021.5 |
| 20260902202507 | 68 | 125 | 0.0 | 9.0 | 0.24 | 0.24 | 0.24 | 93 | 1021.7 |
| 20260902202007 | 68 | 126 | 4.0 | 9.0 | 0.24 | 0.24 | 0.24 | 93 | 1021.6 |
| 20260902201516 | 68 | 130 | 2.0 | 9.0 | 0.24 | 0.24 | 0.24 | 93 | 1021.8 |
| 20260902201006 | 68 | 68 | 1.0 | 5.0 | 0.24 | 0.24 | 0.24 | 92 | 1021.7 |
| 20260902200506 | 68 | 65 | 2.0 | 5.0 | 0.23 | 0.23 | 0.23 | 91 | 1021.8 |
| 20260902200006 | 68 | 59 | 0.0 | 8.0 | 0.17 | 0.17 | 0.17 | 90 | 1022.2 |
| 20260902195504 | 69 | 60 | 1.0 | 8.0 | 0.08 | 0.08 | 0.08 | 88 | 1022.2 |
| 20260902195005 | 69 | 55 | 1.0 | 6.0 | 0.04 | 0.04 | 0.04 | 87 | 1022.4 |
| 20260902194504 | 70 | 55 | 1.0 | 8.0 | 0.02 | 0.02 | 0.02 | 86 | 1022.4 |
| 20260902194004 | 70 | 56 | 3.0 | 8.0 | 0.00 | 0.00 | 0.00 | 84 | 1022.0 |
| 20260902193504 | 71 | 59 | 1.0 | 12.0 | 0.00 | 0.00 | 0.00 | 83 | 1021.8 |
| 20260902193004 | 71 | 66 | 6.0 | 12.0 | 0.00 | 0.00 | 0.00 | 82 | 1021.6 |
| 20260902192503 | 71 | 39 | 4.0 | 12.0 | 0.00 | 0.00 | 0.00 | 82 | 1021.4 |
| 20260902192006 | 71 | 113 | 5.0 | 12.0 | 0.00 | 0.00 | 0.00 | 82 | 1021.2 |
| 20260902191503 | 71 | 115 | 4.0 | 13.0 | 0.00 | 0.00 | 0.00 | 82 | 1021.3 |
| 20260902191002 | 71 | 46 | 4.0 | 14.0 | 0.00 | 0.00 | 0.00 | 82 | 1021.5 |
| 20260902190502 | 71 | 80 | 7.0 | 15.0 | 0.00 | 0.00 | 0.00 | 82 | 1021.4 |
| 20260902190003 | 72 | 117 | 7.0 | 15.0 | 0.00 | 0.00 | 0.00 | 82 | 1021.5 |
| 20260902185502 | 72 | 125 | 5.0 | 15.0 | 0.00 | 0.00 | 0.00 | 81 | 1021.5 |
| 20260902185004 | 72 | 132 | 10.0 | 15.0 | 0.00 | 0.00 | 0.00 | 81 | 1021.5 |
| 20260902184503 | 72 | 107 | 4.0 | 15.0 | 0.00 | 0.00 | 0.00 | 81 | 1021.6 |
| 20260902184003 | 72 | 48 | 5.0 | 15.0 | 0.00 | 0.00 | 0.00 | 81 | 1021.6 |
| 20260902183502 | 72 | 114 | 10.0 | 15.0 | 0.00 | 0.00 | 0.00 | 81 | 1021.7 |
| 20260902183002 | 72 | 105 | 8.0 | 16.0 | 0.00 | 0.00 | 0.00 | 81 | 1021.7 |
| 20260902182500 | 72 | 108 | 8.0 | 16.0 | 0.00 | 0.00 | 0.00 | 80 | 1021.6 |
| 20260902182002 | 73 | 103 | 8.0 | 13.0 | 0.00 | 0.00 | 0.00 | 81 | 1021.6 |
| 20260902181501 | 72 | 109 | 7.0 | 14.0 | 0.00 | 0.00 | 0.00 | 81 | 1021.8 |
| 20260902181001 | 72 | 109 | 9.0 | 16.0 | 0.00 | 0.00 | 0.00 | 81 | 1021.9 |
| 20260902180600 | 72 | 121 | 8.0 | 17.0 | 0.00 | 0.00 | 0.00 | 81 | 1021.8 |
| 20260902180100 | 72 | 104 | 12.0 | 17.0 | 0.00 | 0.00 | 0.00 | 80 | 1021.8 |
| 20260902175602 | 73 | 113 | 10.0 | 15.0 | 0.00 | 0.00 | 0.00 | 80 | 1021.9 |
| 20260902175101 | 72 | 110 | 10.0 | 16.0 | 0.00 | 0.00 | 0.00 | 80 | 1022.2 |
| 20260902174600 | 73 | 119 | 9.0 | 16.0 | 0.00 | 0.00 | 0.00 | 80 | 1022.3 |
| 20260902174103 | 72 | 115 | 10.0 | 18.0 | 0.00 | 0.00 | 0.00 | 80 | 1022.3 |
| 20260902173601 | 73 | 108 | 8.0 | 18.0 | 0.00 | 0.00 | 0.00 | 80 | 1022.3 |
| 20260902173100 | 73 | 111 | 8.0 | 17.0 | 0.00 | 0.00 | 0.00 | 79 | 1022.3 |
| 20260902172603 | 73 | 108 | 7.0 | 14.0 | 0.00 | 0.00 | 0.00 | 79 | 1022.2 |
| 20260902172101 | 73 | 108 | 5.0 | 14.0 | 0.00 | 0.00 | 0.00 | 78 | 1022.4 |
| 20260902171608 | 74 | 115 | 8.0 | 14.0 | 0.00 | 0.00 | 0.00 | 77 | 1022.3 |
| 20260902171058 | 73 | 113 | 7.0 | 14.0 | 0.00 | 0.00 | 0.00 | 78 | 1022.4 |
| 20260902170559 | 73 | 113 | 8.0 | 15.0 | 0.00 | 0.00 | 0.00 | 78 | 1022.4 |
| 20260902170058 | 73 | 114 | 4.0 | 14.0 | 0.00 | 0.00 | 0.00 | 78 | 1022.3 |
| 20260902165558 | 73 | 114 | 9.0 | 15.0 | 0.00 | 0.01 | 0.00 | 78 | 1022.2 |
| 20260902165100 | 74 | 115 | 7.0 | 16.0 | 0.00 | 0.01 | 0.00 | 78 | 1022.2 |
| 20260902164559 | 73 | 110 | 10.0 | 15.0 | 0.00 | 0.01 | 0.00 | 78 | 1022.2 |
| 20260902164059 | 73 | 106 | 5.0 | 15.0 | 0.00 | 0.01 | 0.00 | 79 | 1022.1 |
| 20260902163556 | 72 | 107 | 9.0 | 15.0 | 0.00 | 0.01 | 0.00 | 78 | 1022.2 |
| 20260902163056 | 73 | 108 | 5.0 | 13.0 | 0.00 | 0.01 | 0.00 | 78 | 1022.3 |
| 20260902162556 | 72 | 113 | 9.0 | 13.0 | 0.00 | 0.01 | 0.00 | 79 | 1022.2 |
| 20260902162057 | 73 | 114 | 6.0 | 18.0 | 0.00 | 0.01 | 0.00 | 79 | 1022.1 |
| 20260902161554 | 72 | 121 | 8.0 | 18.0 | 0.00 | 0.01 | 0.00 | 79 | 1022.0 |
| 20260902161054 | 72 | 113 | 5.0 | 14.0 | 0.00 | 0.01 | 0.00 | 79 | 1022.1 |
| 20260902160554 | 72 | 107 | 6.0 | 13.0 | 0.00 | 0.01 | 0.00 | 79 | 1022.1 |
| 20260902160112 | 72 | 105 | 5.0 | 12.0 | 0.00 | 0.01 | 0.00 | 78 | 1022.2 |
| 20260902155553 | 72 | 109 | 3.0 | 12.0 | 0.00 | 0.06 | 0.00 | 79 | 1022.5 |
| 20260902155052 | 72 | 110 | 4.0 | 14.0 | 0.00 | 0.06 | 0.00 | 79 | 1022.5 |
| 20260902154557 | 72 | 111 | 7.0 | 14.0 | 0.00 | 0.06 | 0.00 | 79 | 1022.5 |
| 20260902154051 | 72 | 102 | 4.0 | 11.0 | 0.00 | 0.06 | 0.00 | 80 | 1022.5 |
| 20260902153551 | 71 | 102 | 4.0 | 13.0 | 0.00 | 0.06 | 0.00 | 80 | 1022.5 |
| 20260902153055 | 71 | 99 | 5.0 | 12.0 | 0.00 | 0.06 | 0.00 | 80 | 1022.5 |
| 20260902152549 | 71 | 92 | 3.0 | 8.0 | 0.00 | 0.06 | 0.00 | 80 | 1022.6 |
| 20260902152051 | 71 | 94 | 4.0 | 13.0 | 0.00 | 0.06 | 0.00 | 80 | 1022.7 |
| 20260902151555 | 71 | 94 | 2.0 | 13.0 | 0.00 | 0.06 | 0.00 | 80 | 1022.6 |
| 20260902151049 | 71 | 90 | 7.0 | 13.0 | 0.00 | 0.06 | 0.00 | 79 | 1022.5 |
| 20260902150549 | 71 | 88 | 6.0 | 13.0 | 0.00 | 0.06 | 0.00 | 80 | 1022.5 |
| 20260902150049 | 72 | 80 | 5.0 | 12.0 | 0.00 | 0.06 | 0.00 | 79 | 1022.5 |
| 20260902145548 | 71 | 72 | 2.0 | 10.0 | 0.00 | 0.06 | 0.00 | 80 | 1022.6 |
| 20260902145046 | 71 | 71 | 5.0 | 10.0 | 0.00 | 0.06 | 0.00 | 80 | 1022.4 |
| 20260902144547 | 71 | 69 | 4.0 | 10.0 | 0.00 | 0.06 | 0.00 | 79 | 1022.5 |
| 20260902144047 | 71 | 64 | 4.0 | 10.0 | 0.00 | 0.06 | 0.00 | 79 | 1022.6 |
| 20260902143546 | 71 | 62 | 4.0 | 10.0 | 0.00 | 0.06 | 0.00 | 79 | 1022.6 |
| 20260902143047 | 71 | 57 | 3.0 | 6.0 | 0.00 | 0.06 | 0.00 | 80 | 1022.5 |
| 20260902142545 | 70 | 57 | 2.0 | 7.0 | 0.00 | 0.06 | 0.00 | 79 | 1022.6 |
| 20260902142045 | 70 | 57 | 4.0 | 10.0 | 0.00 | 0.06 | 0.00 | 79 | 1022.7 |
| 20260902141551 | 70 | 57 | 4.0 | 15.0 | 0.00 | 0.06 | 0.00 | 79 | 1022.6 |
| 20260902141043 | 70 | 55 | 5.0 | 15.0 | 0.00 | 0.06 | 0.00 | 79 | 1022.6 |
| 20260902140546 | 70 | 53 | 3.0 | 7.0 | 0.00 | 0.06 | 0.00 | 79 | 1022.4 |
| 20260902140041 | 70 | 52 | 2.0 | 7.0 | 0.00 | 0.06 | 0.00 | 79 | 1022.3 |
| 20260902135543 | 70 | 53 | 3.0 | 7.0 | 0.00 | 0.06 | 0.00 | 79 | 1022.2 |
| 20260902135042 | 70 | 53 | 2.0 | 11.0 | 0.00 | 0.06 | 0.00 | 80 | 1022.4 |
| 20260902134540 | 70 | 53 | 3.0 | 11.0 | 0.00 | 0.06 | 0.00 | 79 | 1022.1 |
| 20260902134038 | 69 | 50 | 5.0 | 10.0 | 0.00 | 0.06 | 0.00 | 79 | 1021.9 |
| 20260902133538 | 69 | 50 | 2.0 | 7.0 | 0.00 | 0.06 | 0.00 | 80 | 1021.9 |
| 20260902133046 | 69 | 50 | 2.0 | 9.0 | 0.00 | 0.06 | 0.00 | 80 | 1022.0 |
| 20260902132535 | 69 | 50 | 4.0 | 9.0 | 0.00 | 0.06 | 0.00 | 81 | 1022.0 |
| 20260902132035 | 69 | 51 | 4.0 | 7.0 | 0.00 | 0.06 | 0.00 | 80 | 1022.1 |
| 20260902131536 | 69 | 51 | 3.0 | 7.0 | 0.00 | 0.06 | 0.00 | 81 | 1022.2 |
| 20260902131034 | 68 | 51 | 2.0 | 7.0 | 0.00 | 0.06 | 0.00 | 81 | 1022.2 |
| 20260902130534 | 68 | 51 | 3.0 | 10.0 | 0.00 | 0.06 | 0.00 | 81 | 1022.0 |
| 20260902130033 | 68 | 50 | 2.0 | 6.0 | 0.00 | 0.06 | 0.00 | 82 | 1022.0 |
| 20260902125532 | 68 | 50 | 2.0 | 9.0 | 0.00 | 0.06 | 0.00 | 82 | 1022.0 |
| 20260902125032 | 68 | 51 | 2.0 | 9.0 | 0.00 | 0.06 | 0.00 | 83 | 1022.0 |
| 20260902124531 | 68 | 43 | 3.0 | 9.0 | 0.00 | 0.06 | 0.00 | 82 | 1022.0 |
| 20260902124031 | 68 | 43 | 1.0 | 9.0 | 0.00 | 0.06 | 0.00 | 83 | 1021.9 |
| 20260902123531 | 67 | 43 | 2.0 | 11.0 | 0.00 | 0.06 | 0.00 | 83 | 1021.8 |
| 20260902123032 | 67 | 42 | 3.0 | 11.0 | 0.00 | 0.06 | 0.00 | 83 | 1021.9 |
| 20260902122530 | 67 | 41 | 3.0 | 9.0 | 0.00 | 0.06 | 0.00 | 84 | 1021.9 |
| 20260902122029 | 67 | 41 | 2.0 | 7.0 | 0.00 | 0.06 | 0.00 | 85 | 1021.9 |
| 20260902121529 | 67 | 41 | 3.0 | 6.0 | 0.00 | 0.06 | 0.00 | 85 | 1021.9 |
| 20260902121029 | 67 | 41 | 3.0 | 5.0 | 0.00 | 0.06 | 0.00 | 85 | 1021.9 |
| 20260902120529 | 67 | 41 | 2.0 | 6.0 | 0.00 | 0.06 | 0.00 | 86 | 1021.8 |
| 20260902120037 | 67 | 41 | 2.0 | 7.0 | 0.00 | 0.06 | 0.00 | 87 | 1021.8 |
| 20260902115530 | 67 | 41 | 2.0 | 9.0 | 0.00 | 0.06 | 0.00 | 88 | 1021.7 |
| 20260902115031 | 67 | 41 | 2.0 | 7.0 | 0.00 | 0.06 | 0.00 | 88 | 1021.7 |
| 20260902114534 | 66 | 41 | 3.0 | 9.0 | 0.00 | 0.06 | 0.00 | 89 | 1021.7 |
| 20260902114030 | 66 | 41 | 5.0 | 9.0 | 0.00 | 0.06 | 0.00 | 90 | 1021.7 |
| 20260902113527 | 66 | 34 | 2.0 | 5.0 | 0.00 | 0.06 | 0.00 | 90 | 1021.8 |
| 20260902113027 | 66 | 34 | 1.0 | 5.0 | 0.00 | 0.06 | 0.00 | 91 | 1021.7 |
| 20260902112527 | 66 | 34 | 2.0 | 5.0 | 0.00 | 0.06 | 0.00 | 92 | 1021.8 |
| 20260902112026 | 66 | 34 | 1.0 | 5.0 | 0.00 | 0.06 | 0.00 | 92 | 1021.7 |
| 20260902111539 | 66 | 34 | 2.0 | 5.0 | 0.00 | 0.06 | 0.00 | 93 | 1021.7 |
| 20260902111025 | 66 | 34 | 2.0 | 6.0 | 0.00 | 0.06 | 0.00 | 93 | 1021.8 |
| 20260902110525 | 66 | 34 | 0.0 | 8.0 | 0.00 | 0.06 | 0.00 | 93 | 1021.8 |
| 20260902110049 | 65 | 35 | 1.0 | 6.0 | 0.00 | 0.06 | 0.00 | 93 | 1021.7 |
| 20260902105524 | 65 | 35 | 1.0 | 4.0 | 0.00 | 0.06 | 0.00 | 94 | 1021.8 |
| 20260902105024 | 65 | 35 | 1.0 | 6.0 | 0.00 | 0.06 | 0.00 | 94 | 1021.7 |
| 20260902104528 | 65 | 35 | 2.0 | 8.0 | 0.00 | 0.06 | 0.00 | 94 | 1021.6 |
| 20260902104023 | 65 | 35 | 3.0 | 8.0 | 0.00 | 0.06 | 0.00 | 94 | 1021.6 |
| 20260902103522 | 65 | 34 | 2.0 | 8.0 | 0.00 | 0.06 | 0.00 | 94 | 1021.5 |
| 20260902103022 | 65 | 34 | 2.0 | 10.0 | 0.00 | 0.06 | 0.00 | 94 | 1021.3 |
| 20260902102522 | 66 | 46 | 2.0 | 9.0 | 0.00 | 0.06 | 0.00 | 94 | 1021.3 |
| 20260902102020 | 66 | 46 | 2.0 | 6.0 | 0.00 | 0.06 | 0.00 | 94 | 1021.2 |
| 20260902101519 | 66 | 46 | 1.0 | 7.0 | 0.00 | 0.06 | 0.00 | 95 | 1021.1 |
| 20260902101018 | 66 | 47 | 2.0 | 7.0 | 0.00 | 0.06 | 0.00 | 94 | 1021.1 |
| 20260902100522 | 66 | 47 | 3.0 | 9.0 | 0.00 | 0.06 | 0.00 | 94 | 1021.0 |
| 20260902100018 | 66 | 48 | 3.0 | 7.0 | 0.00 | 0.06 | 0.00 | 94 | 1021.1 |
| 20260902095517 | 66 | 49 | 2.0 | 9.0 | 0.00 | 0.06 | 0.00 | 94 | 1021.0 |
| 20260902095016 | 67 | 49 | 4.0 | 9.0 | 0.00 | 0.06 | 0.00 | 94 | 1021.0 |
| 20260902094516 | 67 | 48 | 3.0 | 10.0 | 0.00 | 0.06 | 0.00 | 94 | 1021.0 |
| 20260902094020 | 67 | 44 | 3.0 | 10.0 | 0.00 | 0.06 | 0.00 | 94 | 1021.0 |
| 20260902093515 | 67 | 44 | 3.0 | 10.0 | 0.00 | 0.06 | 0.00 | 93 | 1021.0 |
| 20260902093015 | 67 | 42 | 3.0 | 10.0 | 0.00 | 0.06 | 0.00 | 93 | 1020.9 |
| 20260902092515 | 67 | 44 | 4.0 | 10.0 | 0.00 | 0.06 | 0.00 | 93 | 1020.9 |
| 20260902092014 | 67 | 40 | 3.0 | 10.0 | 0.00 | 0.06 | 0.00 | 93 | 1020.9 |
| 20260902091514 | 67 | 40 | 4.0 | 10.0 | 0.00 | 0.06 | 0.00 | 93 | 1020.9 |
| 20260902091013 | 68 | 36 | 3.0 | 8.0 | 0.00 | 0.06 | 0.00 | 93 | 1020.9 |
| 20260902090513 | 68 | 35 | 2.0 | 5.0 | 0.00 | 0.06 | 0.00 | 93 | 1020.8 |
| 20260902090012 | 68 | 35 | 1.0 | 5.0 | 0.00 | 0.12 | 0.00 | 92 | 1020.9 |
| 20260902085512 | 68 | 35 | 0.0 | 5.0 | 0.00 | 0.12 | 0.00 | 92 | 1020.8 |
| 20260902085012 | 68 | 35 | 1.0 | 5.0 | 0.00 | 0.12 | 0.00 | 92 | 1020.8 |
| 20260902084511 | 68 | 35 | 1.0 | 8.0 | 0.00 | 0.12 | 0.00 | 92 | 1020.7 |
| 20260902084011 | 68 | 35 | 2.0 | 8.0 | 0.00 | 0.12 | 0.00 | 92 | 1020.5 |
| 20260902083511 | 68 | 32 | 2.0 | 6.0 | 0.00 | 0.12 | 0.00 | 92 | 1020.7 |
| 20260902083016 | 67 | 33 | 2.0 | 8.0 | 0.00 | 0.12 | 0.00 | 92 | 1020.6 |
| 20260902082511 | 67 | 34 | 3.0 | 8.0 | 0.00 | 0.12 | 0.00 | 92 | 1020.5 |
| 20260902082010 | 67 | 33 | 2.0 | 5.0 | 0.00 | 0.12 | 0.00 | 92 | 1020.4 |
| 20260902081510 | 67 | 33 | 2.0 | 6.0 | 0.00 | 0.12 | 0.00 | 92 | 1020.3 |
| 20260902081010 | 67 | 33 | 3.0 | 6.0 | 0.00 | 0.12 | 0.00 | 92 | 1020.3 |
| 20260902080511 | 67 | 33 | 2.0 | 8.0 | 0.00 | 0.12 | 0.00 | 92 | 1020.4 |
| 20260902080010 | 67 | 30 | 2.0 | 8.0 | 0.00 | 0.22 | 0.00 | 92 | 1020.3 |
| 20260902075509 | 67 | 32 | 2.0 | 9.0 | 0.00 | 0.22 | 0.00 | 92 | 1020.2 |
| 20260902075009 | 67 | 32 | 2.0 | 9.0 | 0.00 | 0.22 | 0.00 | 92 | 1020.3 |
| 20260902074511 | 67 | 32 | 4.0 | 9.0 | 0.00 | 0.22 | 0.00 | 92 | 1020.2 |
| 20260902074008 | 67 | 30 | 2.0 | 8.0 | 0.00 | 0.22 | 0.00 | 92 | 1020.0 |
| 20260902073510 | 67 | 27 | 2.0 | 9.0 | 0.00 | 0.22 | 0.00 | 92 | 1020.1 |
| 20260902073009 | 67 | 27 | 2.0 | 9.0 | 0.00 | 0.22 | 0.00 | 92 | 1020.1 |
| 20260902072509 | 67 | 26 | 3.0 | 9.0 | 0.00 | 0.22 | 0.00 | 93 | 1020.0 |
| 20260902072008 | 67 | 26 | 2.0 | 9.0 | 0.00 | 0.22 | 0.00 | 93 | 1020.0 |
| 20260902071508 | 67 | 26 | 1.0 | 6.0 | 0.00 | 0.22 | 0.00 | 93 | 1019.9 |
| 20260902071011 | 67 | 26 | 1.0 | 6.0 | 0.00 | 0.22 | 0.00 | 93 | 1020.0 |
| 20260902070507 | 67 | 26 | 3.0 | 6.0 | 0.00 | 0.22 | 0.00 | 93 | 1019.9 |
| 20260902070008 | 67 | 26 | 1.0 | 5.0 | 0.00 | 0.34 | 0.00 | 93 | 1020.0 |
| 20260902065507 | 67 | 26 | 2.0 | 10.0 | 0.00 | 0.34 | 0.00 | 94 | 1020.1 |
| 20260902065008 | 67 | 26 | 2.0 | 10.0 | 0.00 | 0.34 | 0.00 | 94 | 1020.0 |
| 20260902064507 | 67 | 5 | 1.0 | 5.0 | 0.00 | 0.34 | 0.00 | 94 | 1019.9 |
| 20260902064007 | 67 | 5 | 0.0 | 8.0 | 0.00 | 0.34 | 0.00 | 94 | 1019.9 |
| 20260902063507 | 67 | 5 | 2.0 | 8.0 | 0.00 | 0.34 | 0.00 | 94 | 1020.0 |
| 20260902063022 | 67 | 360 | 3.0 | 6.0 | 0.00 | 0.34 | 0.00 | 94 | 1019.9 |
| 20260902062507 | 67 | 5 | 2.0 | 5.0 | 0.00 | 0.34 | 0.00 | 93 | 1020.0 |
| 20260902062006 | 67 | 5 | 2.0 | 6.0 | 0.00 | 0.34 | 0.00 | 93 | 1020.0 |
| 20260902061507 | 67 | 360 | 2.0 | 8.0 | 0.00 | 0.34 | 0.00 | 93 | 1020.1 |
| 20260902061005 | 67 | 360 | 3.0 | 10.0 | 0.00 | 0.34 | 0.00 | 93 | 1020.1 |
| 20260902060504 | 67 | 355 | 2.0 | 8.0 | 0.00 | 0.34 | 0.00 | 93 | 1020.1 |
| 20260902060004 | 67 | 355 | 2.0 | 6.0 | 0.00 | 0.46 | 0.00 | 93 | 1020.2 |
| 20260902055504 | 67 | 355 | 2.0 | 5.0 | 0.00 | 0.46 | 0.00 | 93 | 1020.1 |
| 20260902055004 | 67 | 355 | 1.0 | 4.0 | 0.00 | 0.46 | 0.00 | 93 | 1020.2 |
| 20260902054503 | 67 | 355 | 1.0 | 5.0 | 0.00 | 0.46 | 0.00 | 93 | 1020.4 |
| 20260902054002 | 67 | 355 | 2.0 | 5.0 | 0.00 | 0.46 | 0.00 | 93 | 1020.4 |
| 20260902053502 | 67 | 355 | 1.0 | 5.0 | 0.00 | 0.46 | 0.00 | 93 | 1020.5 |
| 20260902053005 | 67 | 355 | 1.0 | 8.0 | 0.00 | 0.46 | 0.00 | 92 | 1020.5 |
| 20260902052500 | 67 | 355 | 3.0 | 8.0 | 0.00 | 0.46 | 0.00 | 92 | 1020.5 |
| 20260902052000 | 67 | 360 | 2.0 | 10.0 | 0.00 | 0.46 | 0.00 | 92 | 1020.6 |
| 20260902051601 | 67 | 360 | 3.0 | 10.0 | 0.00 | 0.46 | 0.00 | 92 | 1020.6 |
| 20260902051058 | 67 | 28 | 1.0 | 8.0 | 0.00 | 0.46 | 0.00 | 92 | 1020.4 |
| 20260902050558 | 67 | 28 | 3.0 | 9.0 | 0.00 | 0.46 | 0.00 | 92 | 1020.3 |
| 20260902050057 | 67 | 32 | 3.0 | 9.0 | 0.00 | 0.46 | 0.00 | 92 | 1020.1 |
| 20260902045559 | 67 | 32 | 4.0 | 10.0 | 0.00 | 0.46 | 0.00 | 92 | 1020.0 |
| 20260902045057 | 68 | 15 | 3.0 | 9.0 | 0.00 | 0.46 | 0.00 | 92 | 1019.9 |
| 20260902044556 | 68 | 15 | 4.0 | 9.0 | 0.00 | 0.46 | 0.00 | 92 | 1020.0 |
| 20260902044055 | 68 | 13 | 5.0 | 9.0 | 0.00 | 0.46 | 0.00 | 92 | 1019.9 |
| 20260902043555 | 68 | 340 | 3.0 | 10.0 | 0.00 | 0.46 | 0.00 | 92 | 1020.0 |
| 20260902043102 | 68 | 50 | 1.0 | 11.0 | 0.00 | 0.46 | 0.00 | 92 | 1019.9 |
| 20260902042555 | 68 | 57 | 5.0 | 11.0 | 0.00 | 0.46 | 0.00 | 92 | 1019.8 |
| 20260902042052 | 68 | 35 | 3.0 | 10.0 | 0.00 | 0.46 | 0.00 | 92 | 1019.8 |
| 20260902041551 | 68 | 35 | 3.0 | 12.0 | 0.00 | 0.46 | 0.00 | 92 | 1019.7 |
| 20260902041050 | 68 | 74 | 5.0 | 12.0 | 0.00 | 0.46 | 0.00 | 92 | 1019.7 |
| 20260902040554 | 68 | 81 | 4.0 | 11.0 | 0.00 | 0.46 | 0.00 | 92 | 1019.7 |
| 20260902040049 | 68 | 61 | 4.0 | 10.0 | 0.00 | 0.46 | 0.00 | 91 | 1019.7 |
| 20260902035548 | 68 | 54 | 3.0 | 10.0 | 0.00 | 0.46 | 0.46 | 92 | 1019.4 |
| 20260902035048 | 68 | 51 | 2.0 | 5.0 | 0.00 | 0.46 | 0.46 | 91 | 1019.2 |
| 20260902034549 | 68 | 55 | 0.0 | 11.0 | 0.00 | 0.46 | 0.46 | 91 | 1019.2 |
| 20260902034049 | 68 | 64 | 6.0 | 13.0 | 0.00 | 0.46 | 0.46 | 91 | 1019.1 |
| 20260902033549 | 68 | 40 | 6.0 | 13.0 | 0.00 | 0.46 | 0.46 | 91 | 1019.3 |
| 20260902033103 | 68 | 48 | 3.0 | 11.0 | 0.00 | 0.46 | 0.46 | 91 | 1019.3 |
| 20260902032550 | 68 | 61 | 5.0 | 12.0 | 0.00 | 0.46 | 0.46 | 91 | 1019.6 |
| 20260902032046 | 68 | 45 | 2.0 | 12.0 | 0.00 | 0.46 | 0.46 | 91 | 1019.6 |
| 20260902031546 | 68 | 35 | 6.0 | 12.0 | 0.00 | 0.46 | 0.46 | 91 | 1019.6 |
| 20260902031045 | 68 | 80 | 3.0 | 12.0 | 0.00 | 0.46 | 0.46 | 91 | 1019.6 |
| 20260902030547 | 68 | 40 | 4.0 | 12.0 | 0.00 | 0.46 | 0.46 | 91 | 1019.6 |
| 20260902030044 | 68 | 57 | 5.0 | 10.0 | 0.00 | 0.46 | 0.46 | 91 | 1019.5 |
| 20260902025544 | 68 | 79 | 4.0 | 13.0 | 0.00 | 0.46 | 0.46 | 91 | 1019.4 |
| 20260902025043 | 68 | 74 | 7.0 | 13.0 | 0.00 | 0.46 | 0.46 | 91 | 1019.3 |
| 20260902024543 | 69 | 84 | 4.0 | 14.0 | 0.00 | 0.46 | 0.46 | 91 | 1019.1 |
| 20260902024042 | 69 | 58 | 6.0 | 14.0 | 0.00 | 0.46 | 0.46 | 92 | 1019.1 |
| 20260902023541 | 69 | 71 | 6.0 | 14.0 | 0.00 | 0.46 | 0.46 | 92 | 1018.9 |
| 20260902023041 | 69 | 60 | 6.0 | 14.0 | 0.00 | 0.46 | 0.46 | 92 | 1018.9 |
| 20260902022541 | 69 | 57 | 2.0 | 12.0 | 0.00 | 0.46 | 0.46 | 93 | 1018.9 |
| 20260902022041 | 69 | 76 | 6.0 | 15.0 | 0.00 | 0.46 | 0.46 | 93 | 1018.8 |
| 20260902021540 | 69 | 59 | 5.0 | 15.0 | 0.00 | 0.46 | 0.46 | 93 | 1018.6 |
| 20260902021040 | 69 | 69 | 4.0 | 13.0 | 0.00 | 0.46 | 0.46 | 93 | 1018.6 |
| 20260902020540 | 69 | 98 | 4.0 | 13.0 | 0.00 | 0.46 | 0.46 | 93 | 1018.5 |
| 20260902020039 | 70 | 57 | 1.0 | 9.0 | 0.00 | 0.46 | 0.46 | 94 | 1018.5 |
| 20260902015539 | 70 | 96 | 5.0 | 10.0 | 0.00 | 0.46 | 0.46 | 94 | 1018.1 |
| 20260902015039 | 70 | 103 | 3.0 | 11.0 | 0.00 | 0.46 | 0.46 | 94 | 1018.1 |
| 20260902014540 | 70 | 80 | 4.0 | 11.0 | 0.00 | 0.46 | 0.46 | 94 | 1018.2 |
| 20260902014038 | 70 | 69 | 5.0 | 14.0 | 0.00 | 0.46 | 0.46 | 94 | 1017.9 |
| 20260902013538 | 71 | 65 | 5.0 | 14.0 | 0.00 | 0.46 | 0.46 | 94 | 1018.0 |
| 20260902013039 | 71 | 64 | 7.0 | 19.0 | 0.00 | 0.46 | 0.46 | 94 | 1017.7 |
| 20260902012538 | 71 | 96 | 7.0 | 19.0 | 0.00 | 0.46 | 0.46 | 94 | 1017.4 |
| 20260902012038 | 71 | 67 | 6.0 | 14.0 | 0.00 | 0.46 | 0.46 | 94 | 1017.5 |
| 20260902011537 | 71 | 79 | 7.0 | 17.0 | 0.00 | 0.46 | 0.46 | 94 | 1017.6 |
| 20260902011038 | 71 | 84 | 8.0 | 17.0 | 0.00 | 0.46 | 0.46 | 94 | 1017.4 |
| 20260902010539 | 72 | 81 | 7.0 | 16.0 | 0.00 | 0.46 | 0.46 | 94 | 1017.0 |
| 20260902010046 | 72 | 80 | 7.0 | 16.0 | 0.00 | 0.46 | 0.46 | 94 | 1017.1 |
| 20260902005537 | 72 | 76 | 8.0 | 16.0 | 0.00 | 0.46 | 0.46 | 94 | 1017.1 |
| 20260902005037 | 72 | 92 | 5.0 | 16.0 | 0.00 | 0.46 | 0.46 | 94 | 1017.1 |
| 20260902004537 | 72 | 101 | 5.0 | 15.0 | 0.00 | 0.46 | 0.46 | 95 | 1017.2 |
| 20260902004039 | 73 | 95 | 6.0 | 17.0 | 0.00 | 0.46 | 0.46 | 94 | 1017.1 |
| 20260902003538 | 73 | 111 | 5.0 | 17.0 | 0.00 | 0.46 | 0.46 | 94 | 1017.2 |
| 20260902003036 | 74 | 109 | 5.0 | 14.0 | 0.00 | 0.46 | 0.46 | 95 | 1017.1 |
| 20260902002536 | 74 | 132 | 4.0 | 12.0 | 0.00 | 0.46 | 0.46 | 95 | 1017.0 |
| 20260902002035 | 74 | 134 | 5.0 | 13.0 | 0.00 | 0.46 | 0.46 | 94 | 1016.8 |
| 20260902001536 | 75 | 140 | 7.0 | 13.0 | 0.00 | 0.46 | 0.46 | 95 | 1016.6 |
| 20260902001035 | 75 | 148 | 6.0 | 11.0 | 0.00 | 0.46 | 0.46 | 94 | 1016.6 |
| 20260902000534 | 75 | 150 | 4.0 | 9.0 | 0.00 | 0.46 | 0.46 | 94 | 1016.6 |
| 20260902000035 | 75 | 150 | 3.0 | 8.0 | 0.00 | 0.46 | 0.46 | 94 | 1016.7 |
| 20260901235534 | 75 | 150 | 0.0 | 6.0 | 0.00 | 0.46 | 0.46 | 94 | 1016.8 |
| 20260901235035 | 75 | 150 | 2.0 | 6.0 | 0.00 | 0.46 | 0.46 | 94 | 1016.5 |
| 20260901234535 | 75 | 150 | 1.0 | 7.0 | 0.00 | 0.46 | 0.46 | 94 | 1016.7 |
| 20260901234037 | 75 | 150 | 2.0 | 7.0 | 0.00 | 0.46 | 0.46 | 94 | 1016.4 |
| 20260901233534 | 75 | 150 | 2.0 | 6.0 | 0.00 | 0.46 | 0.46 | 94 | 1016.5 |
| 20260901233033 | 75 | 150 | 1.0 | 6.0 | 0.00 | 0.46 | 0.46 | 94 | 1016.7 |
| 20260901232533 | 75 | 150 | 1.0 | 6.0 | 0.00 | 0.46 | 0.46 | 94 | 1016.6 |
| 20260901232035 | 75 | 150 | 2.0 | 6.0 | 0.00 | 0.46 | 0.46 | 94 | 1016.6 |
| 20260901231533 | 75 | 150 | 3.0 | 6.0 | 0.00 | 0.46 | 0.46 | 94 | 1016.4 |
| 20260901231032 | 75 | 150 | 1.0 | 8.0 | 0.00 | 0.46 | 0.46 | 94 | 1016.4 |
| 20260901230533 | 75 | 150 | 4.0 | 8.0 | 0.00 | 0.46 | 0.46 | 94 | 1016.2 |
| 20260901230041 | 75 | 150 | 2.0 | 8.0 | 0.00 | 0.46 | 0.46 | 94 | 1016.4 |
| 20260901225532 | 75 | 150 | 4.0 | 8.0 | 0.00 | 0.46 | 0.46 | 93 | 1016.1 |
| 20260901225032 | 75 | 150 | 2.0 | 8.0 | 0.00 | 0.46 | 0.46 | 93 | 1016.3 |
| 20260901224532 | 75 | 150 | 3.0 | 9.0 | 0.00 | 0.46 | 0.46 | 93 | 1016.2 |
| 20260901224033 | 75 | 150 | 4.0 | 9.0 | 0.00 | 0.46 | 0.46 | 93 | 1016.2 |
| 20260901223532 | 76 | 150 | 2.0 | 7.0 | 0.00 | 0.46 | 0.46 | 92 | 1016.0 |
| 20260901223032 | 76 | 150 | 2.0 | 9.0 | 0.00 | 0.46 | 0.46 | 91 | 1016.2 |
| 20260901222534 | 76 | 150 | 5.0 | 9.0 | 0.00 | 0.46 | 0.46 | 91 | 1016.1 |
| 20260901222030 | 76 | 150 | 1.0 | 10.0 | 0.00 | 0.46 | 0.46 | 91 | 1016.0 |
| 20260901221540 | 76 | 150 | 4.0 | 8.0 | 0.00 | 0.46 | 0.46 | 91 | 1016.1 |
| 20260901221031 | 76 | 150 | 3.0 | 8.0 | 0.00 | 0.46 | 0.46 | 90 | 1016.0 |
| 20260901220529 | 76 | 150 | 2.0 | 10.0 | 0.00 | 0.46 | 0.46 | 90 | 1016.0 |
| 20260901220030 | 76 | 150 | 5.0 | 10.0 | 0.00 | 0.46 | 0.46 | 90 | 1015.9 |
| 20260901215530 | 76 | 150 | 5.0 | 9.0 | 0.00 | 0.46 | 0.46 | 90 | 1016.0 |
| 20260901215031 | 77 | 150 | 5.0 | 9.0 | 0.00 | 0.46 | 0.46 | 90 | 1016.0 |
| 20260901214529 | 77 | 150 | 3.0 | 10.0 | 0.00 | 0.46 | 0.46 | 90 | 1016.1 |
| 20260901214029 | 77 | 150 | 7.0 | 10.0 | 0.00 | 0.46 | 0.46 | 90 | 1015.8 |
| 20260901213529 | 77 | 150 | 4.0 | 10.0 | 0.00 | 0.46 | 0.46 | 90 | 1015.9 |
| 20260901213054 | 77 | 150 | 6.0 | 10.0 | 0.00 | 0.46 | 0.46 | 90 | 1016.0 |
| 20260901212528 | 77 | 152 | 5.0 | 9.0 | 0.00 | 0.46 | 0.46 | 90 | 1016.1 |
| 20260901212029 | 77 | 152 | 3.0 | 8.0 | 0.00 | 0.46 | 0.46 | 91 | 1016.2 |
| 20260901211539 | 77 | 152 | 5.0 | 9.0 | 0.00 | 0.46 | 0.46 | 90 | 1016.2 |
| 20260901211027 | 77 | 152 | 4.0 | 9.0 | 0.00 | 0.46 | 0.46 | 90 | 1016.2 |
| 20260901210527 | 77 | 152 | 3.0 | 9.0 | 0.00 | 0.46 | 0.46 | 90 | 1016.3 |
| 20260901210037 | 76 | 152 | 4.0 | 9.0 | 0.00 | 0.46 | 0.46 | 91 | 1016.4 |
| 20260901205527 | 76 | 152 | 4.0 | 8.0 | 0.00 | 0.46 | 0.46 | 91 | 1016.4 |
| 20260901205027 | 76 | 152 | 3.0 | 8.0 | 0.00 | 0.46 | 0.46 | 91 | 1016.4 |